Vorticity
nan nan nan nan nan nan nan nan nan nan nan nan nan nan nan nan nan nan nan nan nan nan nan nan nan nan nan nan nan nan nan nan nan nan nan nan nan nan
nan 8 7 8 9 9 9 8 9 8 8 9 8 8 8 9 9 9 9 9 10 12 12 9 9 10 11 11 12 12 12 13 13 11 10 9 9 nan
nan 9 7 8 8 8 9 9 9 8 7 7 9 8 8 7 8 8 9 10 8 8 8 8 8 8 10 12 13 15 15 16 19 18 11 8 8 nan
nan 9 9 9 9 9 9 9 9 8 8 8 9 10 9 8 8 8 8 8 7 6 8 7 8 8 8 9 10 12 17 18 15 17 20 15 12 nan
nan 8 9 8 8 10 10 8 9 10 9 8 8 9 9 10 10 9 7 9 8 7 7 9 8 8 10 9 10 10 11 11 14 17 19 17 13 nan
nan 10 11 11 13 11 9 9 9 10 10 8 9 9 9 9 10 8 9 9 9 10 7 8 8 9 10 12 11 11 13 14 12 10 15 19 14 nan
nan 12 11 10 11 14 13 12 10 9 9 9 10 10 9 9 9 9 8 10 10 9 9 10 9 10 10 10 7 13 15 12 11 13 13 13 13 nan
nan 11 8 8 10 10 14 14 15 14 12 11 10 9 8 10 8 9 10 10 9 8 10 9 9 10 10 7 8 10 9 8 8 9 10 14 16 nan
nan 13 9 8 10 10 10 10 12 13 14 13 12 12 12 10 9 10 10 10 8 9 14 8 8 10 7 5 9 9 5 5 7 8 10 11 12 nan
nan 14 9 7 8 13 10 6 6 7 12 16 15 12 12 15 16 9 11 13 9 4 13 11 10 10 7 4 2 6 6 4 7 7 8 11 13 nan
nan 11 12 6 5 14 15 9 7 8 10 12 11 8 6 11 22 19 11 13 9 3 10 12 9 11 8 6 5 0 1 4 4 5 6 7 14 nan
nan 6 7 10 9 13 13 10 7 10 10 5 5 6 9 7 11 18 17 14 12 7 5 11 10 13 13 5 3 6 1 3 6 6 4 6 14 nan
nan 7 2 8 17 15 12 13 15 12 9 9 9 8 8 9 8 10 15 18 15 8 10 14 11 12 11 8 5 4 8 8 8 7 6 6 9 nan
nan 8 5 13 19 15 15 16 13 10 9 9 9 9 9 9 9 9 10 12 13 10 10 16 13 9 12 12 7 6 10 7 6 9 9 9 11 nan
nan 12 14 13 11 10 12 11 10 11 11 10 9 9 9 10 13 9 6 5 6 6 8 12 13 12 13 12 10 9 10 7 6 9 9 10 11 nan
nan 16 11 7 9 8 6 9 11 12 12 10 9 9 9 9 10 11 12 10 7 3 4 9 13 16 14 11 10 8 10 9 6 9 11 11 10 nan
nan 12 8 8 8 9 10 10 10 11 10 11 11 9 10 9 9 11 12 13 10 8 7 7 12 16 12 12 12 6 10 9 9 9 11 11 10 nan
nan 10 10 11 10 9 8 8 9 11 11 10 10 10 10 9 9 10 10 11 10 10 9 10 13 14 14 8 4 9 9 9 9 10 11 12 9 nan
nan 12 11 10 9 10 9 9 10 10 10 10 11 10 10 10 10 9 10 10 9 9 10 10 10 12 11 10 7 4 5 9 10 10 10 11 10 nan
nan 14 11 10 10 10 10 10 9 9 10 10 10 10 10 10 10 10 10 10 10 10 10 10 9 7 9 10 10 10 9 6 9 10 11 13 12 nan
nan 12 11 11 11 10 10 10 10 10 10 9 9 10 10 11 10 10 9 9 10 10 9 9 8 11 13 11 8 7 13 13 9 6 9 11 12 nan
nan 11 10 11 10 10 10 10 10 10 9 10 10 9 10 10 10 9 10 9 9 10 9 8 9 13 11 10 8 9 11 11 11 12 12 10 8 nan
nan nan nan nan nan nan nan nan nan nan nan nan nan nan nan nan nan nan nan nan nan nan nan nan nan nan nan nan nan nan nan nan nan nan nan nan nan nan
CAPE
86 195 851 746 24 44 110 142 695 694 638 475 252 28 141 395 459 830 591 61 268 357 17 4 39 0 0 47 18 64 76 281 529 613 635 574 545 322
0 142 453 559 570 322 311 42 236 452 658 269 391 96 278 336 414 841 905 485 558 246 0 48 229 0 0 0 0 0 0 0 4 92 243 242 179 164
324 291 592 345 350 479 444 336 250 144 424 433 199 222 405 678 895 784 1069 1293 1133 447 314 301 201 0 0 0 0 0 0 0 0 0 5 52 55 37
388 311 365 440 537 323 307 615 424 205 392 389 67 520 490 508 543 886 979 956 1186 625 467 321 307 251 124 0 0 0 0 0 0 0 0 0 0 1
754 521 638 518 626 545 355 310 132 274 226 270 388 208 185 250 659 646 899 1043 784 523 478 387 346 299 15 0 0 0 0 0 0 0 0 0 0 0
614 658 663 844 768 560 360 363 265 344 104 164 88 26 49 188 269 581 961 749 546 722 363 303 292 191 0 0 0 0 0 0 0 0 0 0 0 0
309 625 332 58 22 64 336 264 246 408 267 198 69 112 209 255 460 487 650 314 233 685 495 758 933 553 11 0 0 0 0 0 0 0 0 0 0 0
308 372 1 0 0 0 0 0 1 219 244 178 141 320 299 284 219 0 113 74 128 102 288 957 247 22 11 0 0 0 0 0 0 0 0 0 0 0
161 57 0 0 0 0 0 0 0 0 0 121 173 79 0 13 0 0 0 33 115 0 39 734 44 0 2 0 0 0 0 0 0 0 0 0 0 0
0 0 0 0 0 0 2 8 0 0 0 0 0 0 0 0 0 0 0 2 92 0 0 0 0 0 6 0 0 0 0 0 0 0 0 0 0 0
0 0 0 0 0 0 0 0 0 0 0 0 0 0 0 0 0 0 0 0 13 0 0 1 0 0 0 0 0 0 0 0 0 0 0 0 0 0
0 0 0 0 0 0 0 0 0 0 0 0 0 0 0 0 0 0 0 0 1 0 0 0 0 0 0 0 0 0 0 0 0 0 0 0 0 0
0 0 0 0 0 0 0 0 0 0 0 0 0 0 0 0 0 0 0 0 0 0 0 0 0 0 0 0 0 0 0 0 0 0 0 0 0 0
0 0 0 0 0 0 0 0 0 0 0 0 0 0 0 0 0 0 0 0 0 0 0 0 0 0 0 0 0 0 0 0 0 0 0 0 0 0
0 0 0 0 0 0 0 0 0 0 0 0 0 0 0 0 0 0 0 0 0 0 0 0 0 0 0 0 0 0 0 0 0 0 0 0 0 0
0 0 0 0 0 0 0 0 0 0 0 0 0 0 0 0 0 0 0 0 0 0 0 0 0 0 0 0 0 0 0 0 0 0 0 0 0 0
0 0 0 0 0 0 0 0 0 0 0 0 0 0 0 0 0 0 0 0 0 0 0 0 0 0 0 0 0 0 0 0 0 0 0 0 0 0
0 0 0 0 0 0 0 0 0 0 0 0 0 0 0 0 0 0 0 0 0 0 0 0 0 0 0 0 0 0 0 0 0 0 0 0 0 0
0 0 0 0 0 0 0 0 0 0 0 0 0 0 0 0 0 0 0 0 0 0 0 0 0 0 0 0 0 0 0 0 0 0 0 0 0 0
0 0 0 0 0 0 0 0 0 0 0 0 0 0 0 0 0 0 0 0 0 0 0 0 0 0 0 0 0 0 0 1 2 2 2 1 0 1
0 0 0 0 0 0 0 0 0 0 0 0 0 0 0 0 0 0 0 0 0 0 0 0 1 0 0 0 0 0 0 0 0 0 1 1 1 0
0 0 0 0 0 0 0 0 0 0 0 0 0 0 0 0 0 0 0 0 0 0 0 1 1 2 2 2 3 5 2 1 0 0 0 0 6 7
0 0 0 0 0 0 0 0 0 0 0 0 0 0 0 0 0 0 0 0 1 1 3 3 1 0 1 1 2 4 7 6 10 4 0 0 7 16